Regional Weather Roundup
Issued by NWS

Home | Current Version | Previous Version | Text Only | Print | Product List | Glossary On
Versions: 1 2 3 4 5 6 7 8 9 10 11 12 13 14 15 16 17 18 19 20 21 22 23 24 25 26 27 28 29 30 31 32 33 34 35 36 37 38 39 40 41 42 43 44 45 46 47 48 49 50
000
ASUS45 KSLC 041710
RWRUT

UTAH REGIONAL WEATHER ROUNDUP
NATIONAL WEATHER SERVICE SALT LAKE CITY UT
1100 AM MDT FRI SEP 04 2015

UTZ001>011-023>025-041800-

NORTHERN UTAH

CITY           SKY/WX    TMP DP  RH WIND       PRES   REMARKS
BRIGHAM CITY   SUNNY     80  34  19 SW17G23   29.84F
HILL AFB       MOSUNNY   79  36  21 S26G36    29.88S
LOGAN          SUNNY     70  44  39 CALM      29.86F
OGDEN          SUNNY     82  36  19 S20G31    29.85S
PROVO AIRPORT  MOSUNNY   81  39  22 SE12G23   29.91F
SALT LAKE CITY MOSUNNY   81  36  19 S24G33    29.85F
VERNAL         MOSUNNY   73  39  29 SE7       30.01S
WENDOVER       SUNNY     68  36  30 SE5       29.86R
HEBER CITY     SUNNY     77  32  19 SW17G25   29.96F
WEST JORDAN    SUNNY     81  39  22 SE25G33   29.89F

$$

UTZ012>022-026-027-041800-

SOUTHERN/CENTRAL UTAH

CITY           SKY/WX    TMP DP  RH WIND       PRES   REMARKS
BLANDING       CLOUDY    65  53  66 NW6       30.20S
BRYCE CANYON   SUNNY     65  44  46 SE13      30.17S
CEDAR CITY     SUNNY     73  40  30 S20G38    30.01R
DELTA          SUNNY     78  35  21 S25G38    29.93S
HANKSVILLE     MOSUNNY   79  45  29 SW5       29.99S
MILFORD        SUNNY     78  43  28 S26G37    29.95F
MOAB/CYNLANDS  LGT RAIN  77  48  35 SE12      29.97F
PRICE          SUNNY     71  37  28 SE7       30.05S
ST GEORGE      SUNNY     82  50  32 S9        29.90S

$$

REGIONAL REPORTS     COLORADO/ARIZONA

CITY           SKY/WX    TMP DP  RH WIND       PRES   REMARKS
CRAIG, CO      PTSUNNY   69  46  43 E12       30.09S
GRAND JUNCTION PTSUNNY   72  50  45 SE13      30.04S
RIFLE          PTSUNNY   65  51  60 SE3       30.10R
MONTROSE       CLOUDY    68  50  52 E8        30.13F
CORTEZ         CLOUDY    69  49  48 VRB7      30.14R
PAGE, AZ       MOSUNNY   79  50  36 CALM      30.00S
GRAND CANYON   SUNNY     68  41  37 S12       30.17R
KINGMAN        SUNNY     80  52  37 W10G21    29.95S
FLAGSTAFF      CLOUDY    64  52  64 VRB5      30.21R

$$

REGIONAL REPORTS    NEVADA/IDAHO/WYOMING

CITY           SKY/WX    TMP DP  RH WIND       PRES   REMARKS
LAS VEGAS, NV  MOSUNNY   84  50  30 S8        29.79S
ELY            SUNNY     69  29  22 S24G31    29.95F
ELKO           SUNNY     62  36  37 CALM      29.89S
POCATELLO, ID  MOSUNNY   63  38  39 VRB6      29.89F
BURLEY         MOSUNNY   62  40  44 CALM      29.86F
EVANSTON, WY   SUNNY     71  30  21 S21G31    30.04S
ROCK SPRINGS   SUNNY     71  35  26 S5        30.05F
KEMMERER       SUNNY     70  27  19 S15G24    30.06S

$$


USA.gov is the U.S. government's official web portal to all federal, state and local government web resources and services.